Location: Unspecified
(0.0000°N, 0.0000°E)
Time: 07:11:12
(UTC+00:00)

S-56A Canister/Altair - All Passes

Search period start: 08 February 2023 00:00
Search period end: 18 February 2023 00:00
Orbit: 639 x 2493 km, 38.8° (Epoch: 07 February)

Date Brightness Start Highest point End Pass type
(mag) Time Alt. Az. Time Alt. Az. Time Alt. Az.
08 Feb - 02:42:08 10° S 02:47:27 14° SSE 02:51:58 10° SE visible
08 Feb - 04:45:10 10° SW 04:54:22 51° SE 05:00:29 10° ENE visible
08 Feb - 06:52:38 10° W 06:58:15 25° NW 07:02:34 10° N daylight
08 Feb - 15:21:10 10° N 15:27:09 22° NE 15:34:59 10° E daylight
08 Feb - 17:22:31 10° NW 17:31:46 88° SW 17:45:29 10° SE daylight
08 Feb - 19:29:02 10° W 19:38:52 30° SSW 19:50:59 10° SSE visible
09 Feb - 02:08:58 10° S 02:13:55 13° SSE 02:18:13 10° SE visible
09 Feb - 04:11:42 10° SSW 04:21:21 45° SE 04:27:49 10° ENE visible
09 Feb - 06:18:42 10° WSW 06:25:36 33° NW 06:30:37 10° NNE daylight
09 Feb - 14:49:31 10° N 14:54:13 17° NE 15:00:01 10° E daylight
09 Feb - 16:49:54 10° NW 16:58:32 81° NE 17:11:36 10° SE daylight
09 Feb - 18:55:36 10° W 19:05:11 33° SW 19:17:31 10° SSE visible
09 Feb - 21:11:12 10° SW 21:14:59 11° SSW 21:18:52 10° S visible
10 Feb - 01:35:51 10° S 01:40:16 12° SSE 01:44:14 10° SE visible
10 Feb - 03:38:12 10° SSW 03:48:14 40° SE 03:55:04 10° ENE visible
10 Feb - 05:44:49 10° WSW 05:52:55 43° NW 05:58:30 10° NNE visible
10 Feb - 14:18:35 10° NNE 14:21:19 12° NE 14:24:22 10° ENE daylight
10 Feb - 16:17:24 10° NW 16:25:25 70° NE 16:37:38 10° SE daylight
10 Feb - 18:22:21 10° W 18:31:35 37° SW 18:44:00 10° SSE visible
10 Feb - 20:35:47 10° SW 20:40:55 13° SSW 20:46:22 10° S visible
11 Feb - 01:02:53 10° S 01:06:31 11° SSE 01:09:51 10° SE visible
11 Feb - 03:04:42 10° SSW 03:15:00 35° SSE 03:22:12 10° E visible
11 Feb - 05:10:58 10° WSW 05:20:11 55° NW 05:26:17 10° NNE visible
11 Feb - 15:45:01 10° NNW 15:52:24 58° NE 16:03:38 10° ESE daylight
11 Feb - 17:49:15 10° WNW 17:58:05 41° SW 18:10:25 10° SSE daylight
11 Feb - 20:01:00 10° SW 20:06:56 14° SSW 20:13:26 10° S visible
12 Feb - 00:30:18 10° S 00:32:38 11° SSE 00:34:52 10° SSE visible
12 Feb - 02:31:11 10° SSW 02:41:41 32° SSE 02:49:14 10° E visible
12 Feb - 04:37:08 10° SW 04:47:22 69° NW 04:53:58 10° NE visible
12 Feb - 15:12:43 10° NNW 15:19:28 47° NE 15:29:36 10° ESE daylight
12 Feb - 17:16:17 10° WNW 17:24:40 46° SW 17:36:49 10° SSE daylight
12 Feb - 19:26:38 10° SW 19:33:02 15° SSW 19:40:18 10° S visible
13 Feb - 01:57:40 10° SSW 02:08:15 29° SSE 02:16:08 10° E visible
13 Feb - 04:03:19 10° SW 04:14:26 82° NW 04:21:34 10° NE visible
13 Feb - 06:14:54 10° WNW 06:18:10 13° NW 06:21:02 10° NNW daylight
13 Feb - 14:40:31 10° NNW 14:46:39 37° NE 14:55:29 10° ESE daylight
13 Feb - 16:43:27 10° WNW 16:51:22 52° SW 17:03:10 10° SE daylight
13 Feb - 18:52:36 10° WSW 18:59:15 17° SSW 19:07:02 10° S visible
14 Feb - 01:24:10 10° SSW 01:34:44 27° SSE 01:42:52 10° E visible
14 Feb - 03:29:30 10° SW 03:41:24 85° SE 03:49:04 10° NE visible
14 Feb - 05:39:48 10° W 05:45:23 18° NW 05:49:50 10° N visible
14 Feb - 14:08:28 10° NNW 14:13:53 29° NE 14:21:19 10° ESE daylight
14 Feb - 16:10:43 10° WNW 16:18:09 59° SW 16:29:31 10° SE daylight
14 Feb - 18:18:49 10° WSW 18:25:32 18° SSW 18:33:41 10° SSE visible
15 Feb - 00:50:43 10° SSW 01:01:05 24° SSE 01:09:25 10° E visible
15 Feb - 02:55:43 10° SW 03:08:16 75° SE 03:16:28 10° NE visible
15 Feb - 05:05:09 10° W 05:12:34 24° NW 05:18:08 10° N visible
15 Feb - 13:36:35 10° N 13:41:09 22° NE 13:47:03 10° E daylight
15 Feb - 15:38:06 10° WNW 15:45:03 68° SW 15:55:52 10° SE daylight
15 Feb - 17:45:16 10° WSW 17:51:57 20° SSW 18:00:18 10° SSE daylight
16 Feb - 00:17:19 10° SSW 00:27:23 22° SSE 00:35:46 10° ESE visible
16 Feb - 02:21:57 10° SW 02:35:01 66° SE 02:43:47 10° ENE visible
16 Feb - 04:30:41 10° WSW 04:39:43 31° NW 04:46:09 10° NNE visible
16 Feb - 13:05:01 10° N 13:08:27 16° NE 13:12:33 10° E daylight
16 Feb - 15:05:33 10° NW 15:12:04 79° SW 15:22:13 10° SE daylight
16 Feb - 17:11:54 10° WSW 17:18:27 22° SSW 17:26:54 10° SSE daylight
16 Feb - 23:44:00 10° SSW 23:53:34 20° SSE 00:01:53 10° ESE visible
17 Feb - 01:48:13 10° SW 02:01:39 58° SE 02:10:58 10° ENE visible
17 Feb - 03:56:21 10° WSW 04:06:48 39° NW 04:14:01 10° NNE visible
17 Feb - 12:34:23 10° NNE 12:35:43 11° NE 12:37:09 10° ENE daylight
17 Feb - 14:33:05 10° NW 14:39:11 87° NE 14:48:35 10° SE daylight
17 Feb - 16:38:41 10° W 16:45:03 24° SSW 16:53:30 10° SSE daylight
17 Feb - 23:10:48 10° S 23:19:41 18° SSE 23:27:43 10° ESE visible
